Location: Blandford
(50.8667°N, 2.1667°W)
Time: 08:22:29
(UTC+00:00)

Daily predictions for brighter satellites

Satellite Brightness Start Highest point End
(mag) Time Altitude Azimuth Time Altitude Azimuth Time Altitude Azimuth
STARLINK-1230 3.8 19:19:42 10° WNW 19:23:52 74° NNE 19:28:00 10° E
BREEZE M DEB (TANK) 4.4 19:23:56 10° SSE 19:26:05 15° ESE 19:29:26 10° E
Nadezhda 1 Rocket 4.3 19:20:00 10° SSE 19:26:07 50° E 19:32:11 10° NNE
Cosmos 1697 Rocket 4.5 19:23:19 10° N 19:27:14 19° NNE 19:31:09 10° ENE
STARLINK-1243 3.7 19:24:40 10° WNW 19:28:50 76° NNE 19:32:59 10° E
SPOT 3 Rocket 4.0 19:25:10 10° SE 19:30:07 46° ENE 19:35:05 10° N
Cosmos 2154 Rocket 4.1 19:23:56 10° N 19:30:16 63° ENE 19:36:32 10° SSE
FALCON 9 DEB 4.3 19:27:35 10° SSW 19:30:30 25° SE 19:33:25 10° E
Cosmos 1953 Rocket 3.6 19:26:47 10° N 19:31:18 71° ENE 19:35:46 10° SSE
ARGOS 3.2 19:26:09 10° SSE 19:31:31 75° ENE 19:36:55 10° NNW
NOSS 3-4 (A) 4.1 19:25:48 10° NW 19:32:42 75° SW 19:40:20 10° SSE
NOSS 3-4 (C) 4.1 19:25:55 10° NW 19:32:49 76° SW 19:40:27 10° SSE
Cosmos 1606 Rocket 3.6 19:28:56 10° S 19:33:20 66° E 19:37:47 10° NNE
STARLINK-1236 3.7 19:29:40 10° WNW 19:33:49 78° NNE 19:37:59 10° ESE
GEOS 3 Rocket 4.2 19:30:01 10° SSE 19:35:05 56° SW 19:40:16 10° NW
STARLINK-67 4.0 19:34:25 10° W 19:36:41 27° SSW 19:38:56 10° SSE
USA 186 1.7 19:33:40 10° SSE 19:36:55 88° E 19:40:01 10° NNW
CZ-4 R/B 4.3 19:37:06 10° SW 19:39:38 17° W 19:42:11 10° NW
Cosmos 1953 3.3 19:35:47 10° SSW 19:39:41 53° WNW 19:43:37 10° N
Meteor 1-11 4.3 19:35:36 10° N 19:41:23 76° ENE 19:47:04 10° SSE
Cosmos 1818 3.7 19:37:46 10° SW 19:43:13 83° NW 19:48:44 10° NE
NOSS 3-3 (A) 4.5 19:37:35 10° SW 19:43:37 68° NW 19:50:30 10° NE
NOSS 3-3 (C) 4.5 19:37:41 10° SW 19:43:42 68° NW 19:50:36 10° NE
STARLINK-1269 3.7 19:39:37 10° WNW 19:43:47 83° NNE 19:47:44 11° ESE
STARLINK-1200 3.6 19:44:36 10° WNW 19:48:46 85° NNE 19:52:31 13° ESE
STARLINK-1234 3.8 19:50:16 10° WNW 19:53:14 40° SSW 19:55:47 13° SE
STARLINK-1209 3.9 19:50:45 10° W 19:53:41 38° SSW 19:56:15 12° SE
STARLINK-1192 3.6 19:49:34 10° WNW 19:53:45 88° NNE 19:57:18 14° ESE
STARLINK-1233 3.4 19:51:05 10° WNW 19:54:09 50° SSW 19:56:38 14° SE
STARLINK-1212 3.4 19:51:34 10° WNW 19:54:37 49° SSW 19:57:04 14° SE
STARLINK-1105 3.4 19:52:00 10° WNW 19:55:03 49° SSW 19:57:31 14° SE
STARLINK-1206 3.4 19:52:28 10° WNW 19:55:30 48° SSW 19:57:55 15° SE
STARLINK-1247 3.5 19:52:57 10° WNW 19:55:58 48° SSW 19:58:22 15° SE
STARLINK-1227 3.5 19:53:20 10° WNW 19:56:23 48° SSW 19:58:47 15° SE
STARLINK-1218 3.5 19:53:50 10° WNW 19:56:52 47° SSW 19:59:13 15° SE
Iridium 4 Rocket 4.5 19:53:56 10° NNE 19:57:01 20° ENE 19:59:05 14° ESE
SeaSat 1 2.9 19:52:19 10° NNE 19:57:14 67° NW 20:02:07 10° SW
STARLINK-1226 3.5 19:54:16 10° WNW 19:57:18 47° SSW 19:59:40 15° SE
Cosmos 1980 Rocket 4.1 19:53:37 10° N 19:57:23 18° NNE 20:01:09 10° ENE
STARLINK-1254 3.5 19:54:42 10° WNW 19:57:45 47° SSW 20:00:06 15° SE
STARLINK-1215 3.5 19:55:12 10° WNW 19:58:13 46° SSW 20:00:32 15° SE
STARLINK-1231 3.5 19:55:39 10° WNW 19:58:39 46° SSW 20:00:58 15° SE
Cosmos 1174 4.5 19:54:58 10° NNW 19:58:49 48° NE 20:02:39 15° ESE
STARLINK-1244 3.6 19:54:39 10° WNW 19:58:49 89° SSW 20:02:10 15° ESE
STARLINK-1232 3.5 19:56:33 10° WNW 19:59:34 45° SSW 20:01:50 16° SE
STARLINK-1217 3.6 19:57:00 10° WNW 20:00:01 45° SSW 20:02:16 16° SE
USA 234 4.4 19:56:02 10° E 20:00:12 18° ESE 20:04:21 10° SSE
Abrixas rocket 3.2 19:57:34 10° W 20:00:14 30° SSW 20:02:07 15° SE
Cosmos 1892 4.2 19:57:15 10° NNE 20:00:17 21° ENE 20:02:13 15° ESE
STARLINK-1208 3.6 19:57:25 10° WNW 20:00:26 45° SSW 20:02:43 16° SE
STARLINK-1229 3.6 19:57:54 10° WNW 20:00:55 44° SSW 20:03:07 16° SE
STARLINK-1271 3.6 19:58:21 10° WNW 20:01:21 44° SSW 20:03:34 16° SE
STARLINK-1270 3.6 19:58:49 10° WNW 20:01:49 44° SSW 20:04:00 16° SE
STARLINK-1154 3.6 19:59:16 10° WNW 20:02:16 44° SSW 20:04:26 16° SE
STARLINK-1197 3.6 20:00:10 10° WNW 20:03:09 43° SSW 20:05:18 17° SE
STARLINK-1189 3.6 20:00:37 10° WNW 20:03:36 43° SSW 20:05:43 17° SE
STARLINK-1138 3.6 19:59:33 10° WNW 20:03:43 85° SSW 20:06:52 17° ESE
STARLINK-1198 3.6 20:01:05 10° WNW 20:04:03 42° SSW 20:06:10 17° SE
STARLINK-1188 3.7 20:01:30 10° WNW 20:04:30 42° SSW 20:06:35 17° SE
Cosmos 1825 4.4 20:03:31 10° NE 20:04:35 11° ENE 20:05:39 10° ENE
ATLAS 5 CENTAUR R/B 1.5 20:00:31 10° SSW 20:04:39 64° SE 20:09:23 10° NE
ATLAS 2AS CENTAUR R/B 3.6 19:57:28 10° NW 20:04:44 50° WSW 20:11:25 10° SSE
H-2A R/B 2.9 20:00:03 10° S 20:05:04 51° W 20:10:00 10° NNW
STARLINK-1235 4.0 20:02:13 10° W 20:05:08 35° SSW 20:07:18 15° SSE
STARLINK-1187 3.9 20:02:36 10° W 20:05:35 38° SSW 20:07:42 16° SSE
STARLINK-1199 3.7 20:03:28 10° WNW 20:06:28 41° SSW 20:08:31 17° SE
STARLINK-1191 3.7 20:03:55 10° WNW 20:06:54 41° SSW 20:08:56 17° SE
STARLINK-1210 3.7 20:04:22 10° WNW 20:07:21 40° SSW 20:09:23 18° SSE
STARLINK-1221 3.7 20:04:49 10° WNW 20:07:49 40° SSW 20:09:49 18° SSE
COSMOS 2455 3.0 20:02:01 10° NW 20:08:03 76° WSW 20:13:57 11° SSE
STARLINK-1219 3.8 20:05:17 10° WNW 20:08:16 40° SSW 20:10:15 18° SSE
STARLINK-1143 3.6 20:04:32 10° WNW 20:08:41 82° SSW 20:11:39 19° ESE
STARLINK-1222 3.8 20:05:43 10° WNW 20:08:42 40° SSW 20:10:40 18° SSE
STARLINK-1211 3.8 20:06:11 10° WNW 20:09:10 39° SSW 20:11:07 18° SSE
STARLINK-1214 3.8 20:06:38 10° WNW 20:09:36 39° SSW 20:11:33 18° SSE
STARLINK-1245 3.8 20:07:07 10° W 20:10:03 39° SSW 20:11:57 18° SSE
STARLINK-1238 3.8 20:07:32 10° W 20:10:29 39° SSW 20:12:25 18° SSE
STARLINK-1205 3.8 20:08:28 10° W 20:11:24 38° SSW 20:13:16 19° SSE
STARLINK-1204 3.8 20:08:56 10° W 20:11:52 37° SSW 20:13:42 19° SSE
ERBS 2.2 20:08:54 10° WNW 20:12:18 81° NNE 20:14:20 22° ESE
Cosmos 1140 Rocket 3.4 20:07:22 10° SSW 20:12:32 74° ESE 20:17:41 10° NNE
STARLINK-1241 3.6 20:09:32 10° WNW 20:13:43 79° SSW 20:16:28 20° ESE
Ariane Rocket 4.4 20:09:17 10° SSW 20:14:00 38° W 20:18:44 10° NNW
STARLINK-29 3.1 20:14:33 10° SW 20:17:40 52° SSE 20:19:44 19° E
STARLINK-1239 3.6 20:14:31 10° WNW 20:18:40 75° SSW 20:21:14 22° ESE
ATLAS CENTAUR R/B 2.8 20:16:34 10° NNW 20:19:52 24° NNE 20:22:10 14° ENE
Cosmos 614 Rocket 4.5 20:15:10 10° SW 20:20:21 64° WNW 20:25:33 10° NNE
CZ-2C R/B 4.2 20:15:54 10° SSW 20:20:25 40° W 20:24:55 10° NNW
SJ-6B 4.1 20:17:36 10° S 20:21:33 43° W 20:25:31 10° NNW
Cosmos 1300 2.6 20:19:18 10° S 20:23:04 62° E 20:26:52 10° NNE
Resurs 1-3 3.7 20:19:12 10° SSE 20:23:35 80° WSW 20:28:00 10° NNW
STARLINK-1240 3.7 20:19:30 10° WNW 20:23:38 71° SSW 20:26:01 24° SE
STARLINK-60 2.9 20:22:09 10° WSW 20:25:27 89° NNW 20:27:48 18° ENE
Spot 2 Rocket 3.9 20:22:15 19° SE 20:25:36 47° ENE 20:30:29 10° N
Cosmos 841 Rocket 4.5 20:21:58 10° N 20:26:43 32° NE 20:29:32 20° ESE
Cosmos 1190 Rocket 4.2 20:21:28 10° SSW 20:26:46 78° WNW 20:32:05 10° NNE
In-Cosmos 22 Rocket 4.3 20:22:26 10° N 20:28:15 65° ENE 20:32:45 17° SSE
STARLINK-1216 3.7 20:24:28 10° WNW 20:28:35 68° SSW 20:30:47 26° SE
Aureole 1 Rocket 4.4 20:23:22 10° SW 20:30:27 67° WNW 20:35:54 10° NNE
SL-24 R/B 4.0 20:26:35 10° N 20:30:39 75° WNW 20:34:21 10° SSW
Terra 3.5 20:29:53 16° E 20:31:40 19° ENE 20:35:00 10° NNE
CZ-2C R/B 3.8 20:26:59 10° NNE 20:31:43 81° WNW 20:36:21 10° SSW
SPOT 5 4.1 20:31:40 19° E 20:33:05 22° ENE 20:36:25 10° N
STARLINK-1237 3.7 20:29:26 10° WNW 20:33:33 64° SSW 20:35:33 28° SE
MetOp-B 4.2 20:32:14 20° SSE 20:36:00 65° ENE 20:41:20 10° N
Cosmos 2058 Rocket 3.8 20:33:32 10° SSW 20:37:58 56° WNW 20:42:25 10° N
Cosmos 1833 Rocket 4.1 20:39:02 19° E 20:39:02 19° E 20:42:15 10° ENE
STARLINK-1202 3.8 20:34:26 10° WNW 20:38:32 61° SSW 20:40:21 30° SE
Cosmos 468 Rocket 3.9 20:34:20 10° NNW 20:39:31 72° ENE 20:42:31 25° SE
Cosmos 192 4.3 20:35:18 10° NNW 20:40:18 87° ENE 20:43:21 24° SSE
Cosmos 921 Rocket 4.4 20:38:30 10° NW 20:42:19 34° WSW 20:46:07 10° SSW
SL-4 R/B 1.5 20:41:37 10° W 20:45:01 80° N 20:46:33 31° ENE
DMSP B5D2-2 4.1 20:40:13 10° NNE 20:45:29 84° WNW 20:50:44 10° SSW
Cosmos 1408 3.4 20:43:04 10° N 20:46:27 34° ENE 20:46:55 32° E
Cosmos 1340 Rocket 4.2 20:44:09 10° SW 20:47:58 40° WNW 20:51:47 10° N
STARLINK-1246 3.9 20:44:24 10° WNW 20:48:27 54° SSW 20:49:54 34° SSE
RESURS DK-1 2.7 20:44:49 10° NNW 20:48:53 50° NE 20:50:15 35° ESE
ERS-1 Rocket 3.6 20:47:01 28° ESE 20:49:00 39° ENE 20:53:40 10° N
Cosmos 2341 Rocket 4.5 20:44:52 10° NNW 20:51:10 64° W 20:57:28 10° S
Cosmos 1570 Rocket 4.3 20:46:52 10° NNW 20:52:10 56° ENE 20:54:32 31° SE
BREEZE M DEB (TANK) 3.2 20:45:06 10° WSW 20:52:25 54° SSE 20:53:25 39° ESE
STARLINK-1224 4.0 20:49:25 10° WNW 20:53:27 51° SSW 20:54:43 36° SSE
Okean 3 Rocket 4.3 20:49:24 10° N 20:53:34 37° ENE 20:54:33 33° ESE
Meteor 2-12 Rocket 4.4 20:47:45 10° N 20:53:52 71° ENE 20:57:32 25° SSE
Cosmos 2058 2.8 20:51:20 10° N 20:55:29 89° WSW 20:57:23 31° S
STARLINK-1203 4.2 20:51:47 10° WNW 20:55:49 47° SSW 20:57:04 35° SSE
Cosmos 676 Rocket 4.2 20:50:44 10° SSW 20:56:00 73° WNW 21:01:16 10° NNE
Cosmos 220 Rocket 4.4 20:52:14 10° NNW 20:56:30 58° WSW 20:58:53 25° S
CZ-4C R/B 3.3 20:50:20 10° NW 20:56:56 52° NE 21:01:49 23° E
COSMOS 2406 3.6 20:54:52 23° SSE 20:57:54 41° ESE 21:03:15 10° NE
STARLINK-52 2.8 20:54:48 10° WSW 20:58:01 82° SSE 20:58:27 63° E
STARLINK-1225 4.1 20:54:25 10° WNW 20:58:24 48° SSW 20:59:30 37° SSE
Resurs 01 Rocket 2.3 20:55:17 15° S 20:58:43 51° W 21:03:04 10° NNW
MOS 1 Rocket 4.0 20:55:06 10° N 21:00:29 69° WNW 21:05:53 10° SSW
Cosmos 2218 Rocket 4.0 20:56:07 10° NNW 21:02:21 81° W 21:07:06 18° S
STARLINK-1230 4.2 20:59:23 10° WNW 21:03:21 45° SSW 21:04:16 38° S
CZ-2C R/B 2.8 20:58:49 10° N 21:03:59 70° WNW 21:09:09 10° SSW
Cosmos 1812 Rocket 3.4 21:02:25 22° S 21:05:14 88° ESE 21:09:36 10° N
Cosmos 2151 3.1 21:02:44 10° N 21:06:52 53° ENE 21:07:34 47° ESE
FALCON 9 DEB 3.0 21:03:45 10° WSW 21:07:16 90° SSW 21:07:53 58° ENE
STARLINK-1243 4.2 21:04:22 10° WNW 21:08:18 42° SSW 21:09:03 38° S
Iridium 2 4.1 21:08:18 21° SSW 21:10:41 60° W 21:14:29 10° N
Cosmos 1697 Rocket 2.8 21:06:43 10° NNW 21:12:24 63° ENE 21:14:29 38° ESE
Cosmos 2369 3.8 21:06:52 10° NNW 21:12:30 62° NE 21:14:34 38° ESE
STARLINK-1236 4.3 21:09:22 10° WNW 21:13:15 39° SW 21:13:49 37° SSW
Cosmos 1076 Rocket 4.3 21:16:56 10° NNW 21:21:05 49° W 21:23:08 26° SSW
Cosmos 2181 Rocket 4.3 21:15:34 10° SSW 21:21:44 65° WNW 21:27:54 10° N
Cosmos 1741 Rocket 3.9 21:21:15 16° SSW 21:25:34 82° ESE 21:30:57 10° NNE
Landsat 7 3.9 21:25:10 41° S 21:26:48 75° WSW 21:31:35 10° NNW
Meteor 2-1 Rocket 4.4 21:23:23 15° SSW 21:28:25 81° WNW 21:34:25 10° N
Cosmos 2366 rocket 4.5 21:22:34 10° NNW 21:28:35 56° W 21:32:54 19° SSW
Cosmos 1763 Rocket 3.9 21:24:30 10° NNW 21:29:35 56° WSW 21:31:31 35° SSW
Cosmos 1656 3.9 21:25:07 10° NW 21:30:45 64° WSW 21:32:50 38° S
Cosmos 1455 2.1 21:31:25 73° NE 21:31:25 73° NE 21:35:01 10° NNE
Cosmos 1408 Rocket 4.0 21:27:03 10° N 21:31:21 45° ENE 21:31:22 45° ENE
SPOT 1/Viking Rocket 3.6 21:30:44 41° S 21:32:36 78° WSW 21:37:52 10° NNW
Cosmos 540 Rocket 3.4 21:27:58 10° NNW 21:33:11 84° ENE 21:34:20 55° SSE
SL-16 R/B 3.8 21:29:16 10° NNW 21:33:54 25° NE 21:36:11 19° ENE
Cosmos 2360 Rocket 4.4 21:30:34 10° N 21:33:58 16° NNE 21:37:22 10° ENE
Cosmos 2208 Rocket 3.9 21:29:30 10° NNW 21:34:45 85° WSW 21:36:03 52° SSE
Cosmos 1892 3.9 21:32:30 10° NNW 21:36:09 39° W 21:37:13 32° SW
Iridium 4 Rocket 3.9 21:33:17 10° NNW 21:37:17 44° W 21:38:54 29° SW
Cosmos 1825 2.2 21:36:54 10° NNW 21:40:28 77° NW 21:40:28 77° NW
Cosmos 2322 Rocket 3.8 21:36:19 10° NNW 21:40:50 24° NE 21:43:04 19° ENE
Cosmos 1980 Rocket 2.4 21:37:00 10° NNW 21:42:36 60° NE 21:43:48 49° ESE
Nadezhda 3 Rocket 3.9 21:41:26 44° SSE 21:43:30 70° E 21:49:45 10° NNE
USA 234 3.2 21:37:48 10° ENE 21:44:13 56° SE 21:50:38 10° SW
Cosmos 2221 4.4 21:46:37 20° NE 21:46:37 20° NE 21:48:33 10° NNE
Cosmos 1814 Rocket 4.0 21:39:37 10° NNW 21:45:01 82° WSW 21:46:08 57° S
Cosmos-2242 2.9 21:45:30 73° SSW 21:45:53 83° WNW 21:50:17 10° N
ATLAS 5 CENTAUR R/B 3.5 21:45:40 10° W 21:49:40 32° NNW 21:54:14 10° NE
ASTEX 1 3.7 21:50:00 50° E 21:50:04 50° ENE 21:54:52 10° N
Cosmos 1356 Rocket 3.7 21:49:52 58° SW 21:50:29 67° WNW 21:54:44 10° N
BREEZE-M DEB (TANK) 4.4 21:48:53 10° W 21:49:11 12° W 21:49:11 12° W
Meteor 2-3 Rocket 3.7 21:48:43 10° N 21:54:29 70° ENE 21:55:21 60° SE
Cosmos 2084 4.2 21:52:49 10° NW 21:57:06 44° NE 21:57:21 44° NE
ATLAS CENTAUR R/B 1.9 21:55:17 10° NW 21:58:21 49° WNW 21:58:21 49° WNW
Cosmos 2239 Rocket 4.5 21:57:43 10° NNW 22:04:00 80° W 22:05:42 51° S
Mayak 0.3 22:02:49 10° NNE 22:04:58 26° NE 22:04:58 26° NE
Cosmos 841 Rocket 4.1 22:03:45 10° NNW 22:08:49 48° WSW 22:09:38 44° SW
Terra 1.8 22:08:45 73° WSW 22:08:55 74° WSW 22:13:42 10° NNW
Cosmos 1821 Rocket 4.2 22:02:58 10° NNW 22:09:18 67° W 22:11:21 44° SSW
Cosmos 1934 Rocket 3.9 22:04:05 10° N 22:10:23 84° E 22:11:27 63° SSE
Cosmos 2360 4.1 22:04:53 10° NNW 22:10:35 73° WSW 22:11:16 65° SSW
SPOT 5 3.1 22:10:53 50° WSW 22:10:54 50° W 22:15:09 10° NNW
Cosmos 2278 3.6 22:08:11 10° NNW 22:13:49 73° WSW 22:14:24 66° SSW
Cosmos 2082 Rocket 2.4 22:15:56 56° E 22:15:56 56° E 22:20:48 10° NE
CARTOSAT-1 4.5 22:16:38 41° W 22:16:41 41° W 22:20:48 10° NNW
Meteor 2-10 Rocket 4.1 22:14:57 35° SW 22:16:54 55° WNW 22:22:18 10° N
Cosmos 1833 Rocket 2.6 22:20:38 61° SW 22:21:41 84° WNW 22:27:22 10° NNE
SL-4 R/B 4.1 22:21:11 10° WNW 22:22:09 18° W 22:22:09 18° W
RESURS DK-1 4.3 22:23:25 10° WNW 22:26:09 21° W 22:26:09 21° W
ERS-1 Rocket 4.1 22:27:00 32° WSW 22:27:51 34° W 22:32:26 10° NNW
Cosmos 1605 Rocket 3.8 22:22:37 10° N 22:28:48 77° E 22:29:21 71° SE
Cosmos 2344 4.3 22:24:26 10° NW 22:33:46 86° SW 22:38:35 44° SE
ALOS 2 4.1 22:36:50 28° NE 22:36:50 28° NE 22:39:47 10° N
Cosmos 1500 Rocket 4.3 22:35:47 10° NNW 22:39:04 50° NNW 22:39:04 50° NNW
COSMOS 2406 4.3 22:36:49 10° WSW 22:42:14 43° NW 22:47:42 10° NNE
Cosmos 1339 Rocket 4.4 22:42:33 75° SE 22:42:53 77° E 22:49:20 10° NNE
CZ-4C R/B 3.0 22:38:50 10° NW 22:45:51 61° SW 22:46:59 55° SSW
Meteor 1-27 4.2 22:47:28 79° WSW 22:47:40 81° WNW 22:53:34 10° N
Spot 4 4.3 22:53:49 59° N 22:53:49 59° N 22:57:45 10° NNW
Cosmos 1697 Rocket 4.1 22:51:19 10° NW 22:55:57 26° WSW 22:56:13 26° WSW
Cosmos 1607 3.8 23:12:04 81° NE 23:12:04 81° NE 23:18:00 10° NE
Thor Agena Rocket 3.9 23:12:27 10° N 23:16:56 60° NW 23:16:56 60° NW
SL-16 R/B 2.4 23:13:01 10° NNW 23:18:02 70° NW 23:18:02 70° NW
Cosmos 2360 Rocket 2.7 23:13:53 10° NNW 23:19:17 50° NE 23:19:17 50° NE
Cosmos 2221 4.0 23:23:27 34° NW 23:23:27 34° NW 23:26:31 10° N
Cosmos 2322 Rocket 2.4 23:19:58 10° NNW 23:24:52 67° NNW 23:24:52 67° NNW
Cosmos 1980 Rocket 3.6 23:21:34 10° NW 23:25:34 27° W 23:25:34 27° W
USA 234 3.4 23:20:54 10° ENE 23:27:24 70° NNW 23:33:54 10° WSW
NOSS 2-1 (E) 4.4 23:24:07 10° NW 23:28:33 71° NNW 23:28:33 71° NNW
Cosmos 2061 Rocket 4.1 23:24:44 10° N 23:30:49 64° ENE 23:30:49 64° ENE
ATLAS 5 CENTAUR R/B 4.4 23:32:09 10° NW 23:35:49 20° N 23:39:52 10° NE
Cosmos 1459 Rocket 3.9 23:30:02 10° N 23:36:11 84° NNW 23:36:11 84° NNW
MOS 1-B Rocket 4.5 23:34:29 10° NNE 23:40:21 55° E 23:40:21 55° E
Cosmos 2333 Rocket 3.4 23:36:23 10° NNW 23:41:33 35° NE 23:42:25 33° ENE
Mayak 0.8 23:38:50 10° N 23:41:32 23° NW 23:41:32 23° NW
Terra 4.4 23:47:38 11° W 23:47:38 11° W 23:48:36 10° WNW
Cosmos 1727 Rocket 4.3 23:50:34 57° W 23:50:45 58° WNW 23:57:02 10° N
Nimbus 7 Rocket 4.5 23:46:11 10° NNE 23:51:43 74° NNW 23:51:43 74° NNW
